Location: Schommer Observatory
(40.5200°N, 74.4500°W)
Time: 11:49:29
(UTC-05:00)

Tiangong 1 - Pass Details

Date: 11 November 2017
Orbit: 283 x 307 km, 42.8° (Epoch: 24 November)

Event Time Altitude Azimuth Distance (km) Brightness Sun altitude
Exits shadow 04:40:31 20° 96° (E) 741 3.4 -22.8°
Drops below altitude 10° 04:41:29 10° 99° (E) 1,138 4.6 -22.6°
Sets 04:43:27 0° 102° (ESE) 1,962 6.1 -22.2°
